Regional Weather Roundup
Issued by NWS Little Rock, AR

Home | Current Version | Previous Version | Graphics & Text | Print | Product List | Glossary On
Versions: 1 2 3 4 5 6 7 8 9 10 11 12 13 14 15 16 17 18 19 20 21 22 23 24 25 26 27
000
ASUS44 KLZK 242305
RWRLZK

WEATHER ROUNDUP FOR ARKANSAS
NATIONAL WEATHER SERVICE LITTLE ROCK AR
600 PM CDT WED AUG 24 2016

NOTE: "FAIR" INDICATES FEW OR NO CLOUDS BELOW 12,000 FEET WITH NO
SIGNIFICANT WEATHER AND/OR OBSTRUCTIONS TO VISIBILITY.

ARZ001-003-010-029-250000-
NORTHWEST ARKANSAS

CITY           SKY/WX    TMP DP  RH WIND       PRES   REMARKS
FAYETTEVILLE   SUNNY     88  69  53 S15G21    30.06S HX  92
FORT SMITH     SUNNY     93  65  39 S10       30.02F HX  95
HARRISON       SUNNY     87  71  58 S8        30.08F HX  93
BENTONVILLE    SUNNY     90  66  45 S14G20    30.06S HX  92
ROGERS         SUNNY     90  71  53 S16G22    30.05F HX  96
SILOAM SPGS    MOSUNNY   93  63  36 S18       30.06S HX  94
HIGHFILL       SUNNY     91  71  51 S14G24    30.04S HX  97
SPRINGDALE     SUNNY     90  70  51 S14G23    30.08S HX  95
$$

ARZ004-005-016-250000-
NORTH CENTRAL ARKANSAS

CITY           SKY/WX    TMP DP  RH WIND       PRES   REMARKS
BATESVILLE     MOSUNNY   90  75  62 SE5       30.06S HX 100
FLIPPIN        MOSUNNY   90  70  51 S8        30.04R HX  95
MTN HOME       SUNNY     88  73  61 SW7       30.06S HX  95
$$

ARZ040-041-250000-
WEST CENTRAL ARKANSAS

CITY           SKY/WX    TMP DP  RH WIND       PRES   REMARKS
MENA           SUNNY     90  72  55 S3        30.09S HX  96
MOUNT IDA      SUNNY     89  68  49 CALM      30.06F HX  93
$$

ARZ009-017-025-026-028-250000-
NORTHEAST ARKANSAS

CITY           SKY/WX    TMP DP  RH WIND       PRES   REMARKS
CORNING          N/A     90  79  70 S12G17    30.05F HX 105
JONESBORO      SUNNY     89  75  63 SW15      30.06F HX  99
NEWPORT        SUNNY     91  76  61 S13       30.05F HX 103
WALNUT RIDGE   SUNNY     91  75  59 S16       30.03F HX 102
BLYTHEVILLE    SUNNY     90  77  65 S8        30.07F HX 103
$$

ARZ022-023-033-042-044-250000-
CENTRAL ARKANSAS

CITY           SKY/WX    TMP DP  RH WIND       PRES   REMARKS
LITTLE ROCK    MOSUNNY   93  75  55 S8        30.05F HX 104
SEARCY         SUNNY     91  78  65 S9        30.06F HX 106
HOT SPRINGS    SUNNY     91  71  51 S8        30.07S HX  97
RUSSELLVILLE   SUNNY     90  69  50 S6        30.03F HX  94
$$

ARZ036-250000-
EAST ARKANSAS

CITY           SKY/WX    TMP DP  RH WIND       PRES   REMARKS
WEST MEMPHIS   SUNNY     89  74  60 S6        30.06F HX  98
$$

ARZ050-053-066-070-073-250000-
SOUTHWEST ARKANSAS

CITY           SKY/WX    TMP DP  RH WIND       PRES   REMARKS
ARKADELPHIA    FAIR      91  75  59 S7        30.06F HX 101
CAMDEN         SUNNY     91  72  52 S6        30.06F HX  98
TEXARKANA      SUNNY     90  74  59 S8        30.06F HX  99
EL DORADO      SUNNY     92  72  51 S6        30.07F HX  99
DE QUEEN       SUNNY     91  71  51 S6        30.03F HX  97
$$

ARZ056-057-069-250000-
SOUTHEAST ARKANSAS

CITY           SKY/WX    TMP DP  RH WIND       PRES   REMARKS
PINE BLUFF     SUNNY     91  72  53 S7        30.07F HX  98
STUTTGART      SUNNY     91  72  52 S10       30.07F HX  98
MONTICELLO     SUNNY     95  71  45 SW6       30.08S HX 102

$$






USA.gov is the U.S. government's official web portal to all federal, state and local government web resources and services.